Regional Weather Roundup
Issued by NWS

Home | Current Version | Previous Version | Text Only | Print | Product List | Glossary Off
Versions: 1 2 3 4 5 6 7 8 9 10 11 12 13 14 15 16 17 18 19 20 21 22 23 24 25 26 27 28 29 30 31 32 33 34 35 36 37 38 39 40 41 42 43 44 45 46 47 48 49 50

000
ASUS43 KIND 021059
RWRIN

WEATHER ROUNDUP FOR INDIANA
NATIONAL WEATHER SERVICE INDIANAPOLIS IN
600 AM EST MON MAR 02 2015

NOTE: "FAIR" INDICATES FEW OR NO CLOUDS BELOW 12,000 FEET WITH NO
SIGNIFICANT WEATHER AND/OR OBSTRUCTIONS TO VISIBILITY.

* - STATION DOES NOT REPORT WEATHER SUCH AS PRECIPITATION OR FOG.

+ - STATION NOT QUALITY CONTROLLED BY THE NATIONAL WEATHER SERVICE.
    USE DATA WITH CAUTION...ESPECIALLY DEWPOINT AND RELATIVE
    HUMIDITY OBSERVATIONS.

INZ001>003-010>013-019-020-021200-
NORTHWEST INDIANA

CITY           SKY/WX    TMP DP  RH WIND       PRES   REMARKS
GARY /AIRPORT/ CLEAR     16   7  67 W8        30.45R WCI   5
KNOX *+          N/A      7  -4  61 W6        30.44R WCI  -3
MONTICELLO +   MOCLDY    10   6  85 NW6       30.46R WCI   0
VALPARAISO     NOT AVBL

$$

LMZ046-743>745-021200-
SOUTHERN LAKE MICHIGAN

STATION/POSITION TIME  TEMP WIND        PRES
                       AIR  DIR/SP/G
                 (UTC) (F)  (DEG/KT/KT) (MB)
MICHIGAN CITY    1000   18  240/ 12/ 13   N/A

$$

INZ004-005-014>016-021>024-021200-
NORTH CENTRAL INDIANA

CITY           SKY/WX    TMP DP  RH WIND       PRES   REMARKS
GOSHEN         PTCLDY    10   5  80 W8        30.39R WCI  -2
SOUTH BEND     PTCLDY    14   8  77 W12       30.41R WCI   0

$$

INZ006>009-017-018-025>027-021200-
NORTHEAST INDIANA

CITY           SKY/WX    TMP DP  RH WIND       PRES   REMARKS
ANGOLA *+      CLEAR     14  10  85 VRB5      30.35R WCI   6
FORT WAYNE     PTCLDY     7   4  87 W7        30.42R WCI  -5

$$

INZ028-029-035-036-043>045-051>053-021200-
WEST CENTRAL INDIANA

CITY           SKY/WX    TMP DP  RH WIND       PRES   REMARKS
CRAWFORDSVL +  CLOUDY    14   6  72 W3        30.47R
GREENCASTLE +  MOCLDY    19  10  68 NW6       30.47R WCI  11
LAFAYETTE      CLOUDY    13   9  84 CALM      30.47R
TERRE HAUTE    MOCLDY    19  13  77 N3        30.49R

$$

INZ030>032-037>040-046>048-054>057-064-065-021200-
CENTRAL INDIANA

CITY           SKY/WX    TMP DP  RH WIND       PRES   REMARKS
CP ATTERBURY + PTCLDY    21  14  73 NW7       30.49R WCI  13
FRANKFORT +    CLOUDY    11   7  85 SW5       30.47R WCI   3
GREENWOOD *+   MOCLDY    19   9  63 NW6       30.47R WCI  11
INDIANAPOLIS   CLOUDY    19  11  70 NW12      30.46R WCI   7
-EAGLE CREEK   MOCLDY    17  10  74 N8        30.46R WCI   7
KOKOMO *+      MOCLDY    10   7  85 W6        30.45R WCI   1
MT COMFORT *+  MOCLDY    18   5  57 NW8       30.46R WCI   7
SHELBYVILLE    MOCLDY    21  12  68 N7        30.46R WCI  12
ZIONSVILLE +   MOCLDY    17   9  72 W6        30.46R WCI   8

$$

INZ033-034-041-042-049-050-058-059-021200-
EAST CENTRAL INDIANA

CITY           SKY/WX    TMP DP  RH WIND       PRES   REMARKS
MUNCIE         MOCLDY    15  10  80 NW8       30.44R WCI   4

$$

INZ060-061-067>069-081>083-085>088-021200-
SOUTHWEST INDIANA

CITY           SKY/WX    TMP DP  RH WIND       PRES   REMARKS
EVANSVILLE     CLEAR     25  19  78 N7        30.53R WCI  17
HUNTINGBURG *+ CLEAR     23  18  80 N6        30.51R WCI  16

$$

INZ062-063-066-070>080-084-089>092-021200-
SOUTH CENTRAL AND SOUTHEAST INDIANA

CITY           SKY/WX    TMP DP  RH WIND       PRES   REMARKS
BLOOMINGTON    PTCLDY    18  14  84 CALM      30.47R
SEYMOUR +      CLEAR     21  16  79 NW3       30.49R

$$




USA.gov is the U.S. government's official web portal to all federal, state and local government web resources and services.